| time (UTC) | temp C | wind direction | speed KPH | gust KPH | rain 1hr cm | rain 24hr cm | rain mn cm | humidity % | barometer mb |
| 20260504081524 | 6 | 199 | 1.6 | 1.6 | 0.00 | 0.00 | 0.00 | 62 | |
| 20260504081019 | 6 | 192 | 1.6 | 1.6 | 0.00 | 0.00 | 0.00 | 61 | |
| 20260504080516 | 6 | 192 | 1.6 | 4.8 | 0.00 | 0.00 | 0.00 | 61 | |
| 20260504050328 | 4 | 175 | 0.0 | 0.0 | 0.00 | 0.00 | 0.00 | 67 | |
| 20260504045826 | 4 | 184 | 0.0 | 0.0 | 0.00 | 0.00 | 0.00 | 66 | |
| 20260504045320 | 4 | 181 | 0.0 | 0.0 | 0.00 | 0.00 | 0.00 | 65 | |
| 20260504044818 | 4 | 167 | 0.0 | 0.0 | 0.00 | 0.00 | 0.00 | 66 | |
| 20260504044315 | 4 | 167 | 0.0 | 0.0 | 0.00 | 0.00 | 0.00 | 65 | |
| 20260504043812 | 4 | 171 | 0.0 | 0.0 | 0.00 | 0.00 | 0.00 | 64 | |
| 20260504043309 | 5 | 160 | 0.0 | 0.0 | 0.00 | 0.00 | 0.00 | 63 | |
| 20260504042807 | 5 | 196 | 0.0 | 0.0 | 0.00 | 0.00 | 0.00 | 62 | |
| 20260504042304 | 5 | 213 | 1.6 | 1.6 | 0.00 | 0.00 | 0.00 | 62 | |
| 20260504041759 | 4 | 191 | 0.0 | 1.6 | 0.00 | 0.00 | 0.00 | 62 | |
| 20260504041255 | 4 | 196 | 0.0 | 1.6 | 0.00 | 0.00 | 0.00 | 63 | |
| 20260504040752 | 4 | 189 | 0.0 | 1.6 | 0.00 | 0.00 | 0.00 | 64 | |
| 20260504040249 | 3 | 170 | 0.0 | 0.0 | 0.00 | 0.00 | 0.00 | 65 | |
| 20260504035745 | 3 | 163 | 0.0 | 0.0 | 0.00 | 0.00 | 0.00 | 65 | |
| 20260504035242 | 4 | 163 | 0.0 | 0.0 | 0.00 | 0.00 | 0.00 | 65 | |
| 20260504034740 | 4 | 178 | 0.0 | 0.0 | 0.00 | 0.00 | 0.00 | 65 | |
| 20260504034237 | 4 | 180 | 0.0 | 1.6 | 0.00 | 0.00 | 0.00 | 64 | |
| 20260504033734 | 4 | 179 | 0.0 | 0.0 | 0.00 | 0.00 | 0.00 | 64 | |
| 20260504033232 | 5 | 176 | 0.0 | 0.0 | 0.00 | 0.00 | 0.00 | 64 | |
| 20260504032728 | 5 | 183 | 0.0 | 0.0 | 0.00 | 0.00 | 0.00 | 62 | |
| 20260504032226 | 5 | 182 | 0.0 | 0.0 | 0.00 | 0.00 | 0.00 | 63 | |
| 20260504031722 | 5 | 189 | 0.0 | 0.0 | 0.00 | 0.00 | 0.00 | 61 | |
| 20260504031220 | 5 | 192 | 0.0 | 0.0 | 0.00 | 0.00 | 0.00 | 61 | |
| 20260504030715 | 5 | 192 | 0.0 | 1.6 | 0.00 | 0.00 | 0.00 | 60 | |
| 20260504030213 | 5 | 185 | 1.6 | 1.6 | 0.00 | 0.00 | 0.00 | 60 | |
| 20260504025709 | 5 | 186 | 0.0 | 1.6 | 0.00 | 0.00 | 0.00 | 62 | |
| 20260504025206 | 5 | 183 | 0.0 | 0.0 | 0.00 | 0.00 | 0.00 | 62 | |
| 20260504024703 | 5 | 183 | 0.0 | 0.0 | 0.00 | 0.00 | 0.00 | 61 | |
| 20260504024200 | 5 | 183 | 0.0 | 0.0 | 0.00 | 0.00 | 0.00 | 61 | |
| 20260504023656 | 5 | 167 | 0.0 | 0.0 | 0.00 | 0.00 | 0.00 | 60 | |
| 20260504023152 | 5 | 164 | 0.0 | 0.0 | 0.00 | 0.00 | 0.00 | 60 | |
| 20260504022649 | 5 | 165 | 0.0 | 0.0 | 0.00 | 0.00 | 0.00 | 60 | |
| 20260504022144 | 5 | 167 | 0.0 | 0.0 | 0.00 | 0.00 | 0.00 | 60 | |
| 20260504021643 | 6 | 175 | 0.0 | 0.0 | 0.00 | 0.00 | 0.00 | 60 | |
| 20260504021139 | 6 | 175 | 0.0 | 0.0 | 0.00 | 0.00 | 0.00 | 59 | |
| 20260504020636 | 6 | 161 | 0.0 | 0.0 | 0.00 | 0.00 | 0.00 | 58 | |
| 20260504020132 | 6 | 199 | 1.6 | 1.6 | 0.00 | 0.00 | 0.00 | 55 | |
| 20260504015629 | 7 | 181 | 0.0 | 0.0 | 0.00 | 0.00 | 0.00 | 55 | |
| 20260504015125 | 7 | 161 | 0.0 | 4.8 | 0.00 | 0.00 | 0.00 | 53 | |
| 20260504014621 | 7 | 191 | 0.0 | 1.6 | 0.00 | 0.00 | 0.00 | 51 | |
| 20260504014119 | 7 | 201 | 1.6 | 4.8 | 0.00 | 0.00 | 0.00 | 50 | |
| 20260504013616 | 7 | 174 | 0.0 | 1.6 | 0.00 | 0.00 | 0.00 | 50 | |
| 20260504013113 | 7 | 196 | 0.0 | 0.0 | 0.00 | 0.00 | 0.00 | 50 | |
| 20260504012610 | 7 | 190 | 0.0 | 0.0 | 0.00 | 0.00 | 0.00 | 50 | |
| 20260504012108 | 7 | 192 | 0.0 | 1.6 | 0.00 | 0.00 | 0.00 | 50 | |
| 20260504011605 | 7 | 191 | 0.0 | 1.6 | 0.00 | 0.00 | 0.00 | 50 | |
| 20260504011101 | 8 | 194 | 0.0 | 1.6 | 0.00 | 0.00 | 0.00 | 50 | |
| 20260504010556 | 8 | 203 | 1.6 | 1.6 | 0.00 | 0.00 | 0.00 | 49 | |
| 20260504010053 | 8 | 191 | 0.0 | 1.6 | 0.00 | 0.00 | 0.00 | 49 | |
| 20260504005549 | 8 | 195 | 0.0 | 1.6 | 0.00 | 0.00 | 0.00 | 49 | |
| 20260504005047 | 8 | 208 | 1.6 | 1.6 | 0.00 | 0.00 | 0.00 | 48 | |
| 20260504004545 | 8 | 202 | 0.0 | 0.0 | 0.00 | 0.00 | 0.00 | 48 | |
| 20260504004041 | 8 | 195 | 1.6 | 1.6 | 0.00 | 0.00 | 0.00 | 48 | |
| 20260504003537 | 8 | 201 | 1.6 | 4.8 | 0.00 | 0.00 | 0.00 | 48 | |
| 20260504003034 | 8 | 201 | 1.6 | 4.8 | 0.00 | 0.00 | 0.00 | 47 | |
| 20260504002531 | 8 | 198 | 1.6 | 4.8 | 0.00 | 0.00 | 0.00 | 47 | |
| 20260504002029 | 8 | 189 | 1.6 | 4.8 | 0.00 | 0.00 | 0.00 | 47 | |
| 20260504001527 | 8 | 244 | 4.8 | 6.4 | 0.00 | 0.00 | 0.00 | 46 | |
| 20260504001022 | 9 | 239 | 4.8 | 6.4 | 0.00 | 0.00 | 0.00 | 46 | |
| 20260504000520 | 9 | 236 | 1.6 | 9.7 | 0.00 | 0.00 | 0.00 | 46 | |
| 20260504000017 | 9 | 256 | 11.3 | 16.1 | 0.00 | 0.00 | 0.00 | 45 | |
| 20260503235515 | 9 | 260 | 12.9 | 16.1 | 0.00 | 0.00 | 0.00 | 45 | |
| 20260503235012 | 9 | 246 | 3.2 | 17.7 | 0.00 | 0.00 | 0.00 | 44 | |
| 20260503234509 | 10 | 215 | 4.8 | 16.1 | 0.00 | 0.00 | 0.00 | 44 | |
| 20260503234008 | 10 | 289 | 8.0 | 16.1 | 0.00 | 0.00 | 0.00 | 43 | |
| 20260503233504 | 10 | 247 | 12.9 | 14.5 | 0.00 | 0.00 | 0.00 | 43 | |
| 20260503233000 | 10 | 254 | 11.3 | 22.5 | 0.00 | 0.00 | 0.00 | 43 | |
| 20260503232457 | 10 | 283 | 12.9 | 16.1 | 0.00 | 0.00 | 0.00 | 43 | |
| 20260503231955 | 10 | 259 | 9.7 | 27.4 | 0.00 | 0.00 | 0.00 | 42 | |
| 20260503231452 | 10 | 269 | 17.7 | 20.9 | 0.00 | 0.00 | 0.00 | 41 | |
| 20260503230948 | 10 | 223 | 14.5 | 25.7 | 0.00 | 0.00 | 0.00 | 41 | |
| 20260503230445 | 10 | 289 | 16.1 | 25.7 | 0.00 | 0.00 | 0.00 | 41 | |
| 20260503225943 | 10 | 250 | 6.4 | 17.7 | 0.00 | 0.00 | 0.00 | 41 | |
| 20260503225439 | 10 | 256 | 12.9 | 22.5 | 0.00 | 0.00 | 0.00 | 41 | |
| 20260503224935 | 11 | 275 | 14.5 | 20.9 | 0.00 | 0.00 | 0.00 | 41 | |
| 20260503224432 | 10 | 251 | 8.0 | 17.7 | 0.00 | 0.00 | 0.00 | 41 | |
| 20260503223930 | 11 | 226 | 14.5 | 20.9 | 0.00 | 0.00 | 0.00 | 41 | |
| 20260503223427 | 11 | 226 | 4.8 | 17.7 | 0.00 | 0.00 | 0.00 | 40 | |
| 20260503222922 | 11 | 254 | 8.0 | 20.9 | 0.00 | 0.00 | 0.00 | 40 | |
| 20260503222422 | 11 | 239 | 6.4 | 20.9 | 0.00 | 0.00 | 0.00 | 41 | |
| 20260503221920 | 11 | 252 | 11.3 | 16.1 | 0.00 | 0.00 | 0.00 | 39 | |
| 20260503221417 | 11 | 191 | 1.6 | 11.3 | 0.00 | 0.00 | 0.00 | 40 | |
| 20260503220914 | 11 | 303 | 9.7 | 20.9 | 0.00 | 0.00 | 0.00 | 39 | |
| 20260503220410 | 11 | 227 | 4.8 | 20.9 | 0.00 | 0.00 | 0.00 | 39 | |
| 20260503215908 | 11 | 236 | 8.0 | 14.5 | 0.00 | 0.00 | 0.00 | 41 | |
| 20260503215404 | 11 | 230 | 11.3 | 20.9 | 0.00 | 0.00 | 0.00 | 40 | |
| 20260503214902 | 11 | 229 | 3.2 | 4.8 | 0.00 | 0.00 | 0.00 | 40 | |
| 20260503214359 | 11 | 243 | 12.9 | 27.4 | 0.00 | 0.00 | 0.00 | 39 | |
| 20260503213856 | 11 | 258 | 17.7 | 20.9 | 0.00 | 0.00 | 0.00 | 39 | |
| 20260503213354 | 11 | 245 | 14.5 | 17.7 | 0.00 | 0.00 | 0.00 | 40 | |
| 20260503212850 | 11 | 265 | 11.3 | 20.9 | 0.00 | 0.00 | 0.00 | 40 | |
| 20260503212349 | 11 | 273 | 9.7 | 17.7 | 0.00 | 0.00 | 0.00 | 39 | |
| 20260503211845 | 11 | 242 | 12.9 | 20.9 | 0.00 | 0.00 | 0.00 | 38 | |
| 20260503211342 | 11 | 236 | 8.0 | 11.3 | 0.00 | 0.00 | 0.00 | 41 | |
| 20260503210837 | 11 | 281 | 9.7 | 25.7 | 0.00 | 0.00 | 0.00 | 40 | |
| 20260503210335 | 11 | 274 | 8.0 | 22.5 | 0.00 | 0.00 | 0.00 | 41 | |
| 20260503205830 | 11 | 277 | 9.7 | 14.5 | 0.00 | 0.00 | 0.00 | 40 | |
| 20260503205327 | 11 | 273 | 16.1 | 17.7 | 0.00 | 0.00 | 0.00 | 39 | |
| 20260503204823 | 10 | 241 | 9.7 | 14.5 | 0.00 | 0.00 | 0.00 | 40 | |
| 20260503204321 | 11 | 252 | 6.4 | 17.7 | 0.00 | 0.00 | 0.00 | 41 | |
| 20260503203818 | 11 | 285 | 9.7 | 16.1 | 0.00 | 0.00 | 0.00 | 41 | |
| 20260503203315 | 10 | 256 | 9.7 | 14.5 | 0.00 | 0.00 | 0.00 | 41 | |
| 20260503202812 | 10 | 199 | 6.4 | 11.3 | 0.00 | 0.00 | 0.00 | 42 | |
| 20260503202310 | 11 | 225 | 11.3 | 14.5 | 0.00 | 0.00 | 0.00 | 40 | |
| 20260503201808 | 10 | 256 | 12.9 | 25.7 | 0.00 | 0.00 | 0.00 | 42 | |
| 20260503201305 | 10 | 225 | 6.4 | 16.1 | 0.00 | 0.00 | 0.00 | 41 | |
| 20260503200802 | 11 | 261 | 14.5 | 20.9 | 0.00 | 0.00 | 0.00 | 42 | |
| 20260503200258 | 11 | 273 | 11.3 | 25.7 | 0.00 | 0.00 | 0.00 | 42 | |
| 20260503195755 | 10 | 272 | 9.7 | 17.7 | 0.00 | 0.00 | 0.00 | 42 | |
| 20260503195251 | 10 | 270 | 11.3 | 22.5 | 0.00 | 0.00 | 0.00 | 41 | |
| 20260503194744 | 10 | 214 | 4.8 | 11.3 | 0.00 | 0.00 | 0.00 | 42 | |
| 20260503194239 | 10 | 239 | 8.0 | 25.7 | 0.00 | 0.00 | 0.00 | 41 | |
| 20260503193735 | 10 | 279 | 17.7 | 20.9 | 0.00 | 0.00 | 0.00 | 40 | |
| 20260503193231 | 10 | 257 | 24.1 | 30.6 | 0.00 | 0.00 | 0.00 | 40 | |
| 20260503192727 | 10 | 310 | 8.0 | 17.7 | 0.00 | 0.00 | 0.00 | 42 | |
| 20260503192222 | 10 | 256 | 12.9 | 16.1 | 0.00 | 0.00 | 0.00 | 43 | |
| 20260503191720 | 10 | 263 | 12.9 | 16.1 | 0.00 | 0.00 | 0.00 | 42 | |
| 20260503191217 | 11 | 209 | 1.6 | 4.8 | 0.00 | 0.00 | 0.00 | 40 | |
| 20260503190714 | 10 | 248 | 4.8 | 16.1 | 0.00 | 0.00 | 0.00 | 45 | |
| 20260503190210 | 9 | 234 | 8.0 | 11.3 | 0.00 | 0.00 | 0.00 | 42 | |
| 20260503185708 | 10 | 212 | 4.8 | 22.5 | 0.00 | 0.00 | 0.00 | 43 | |
| 20260503185203 | 9 | 324 | 9.7 | 22.5 | 0.00 | 0.00 | 0.00 | 44 | |
| 20260503184657 | 8 | 278 | 9.7 | 17.7 | 0.00 | 0.00 | 0.00 | 43 | |
| 20260503184154 | 9 | 293 | 4.8 | 9.7 | 0.00 | 0.00 | 0.00 | 41 | |
| 20260503183650 | 10 | 267 | 14.5 | 17.7 | 0.00 | 0.00 | 0.00 | 43 | |
| 20260503183148 | 10 | 190 | 12.9 | 17.7 | 0.00 | 0.00 | 0.00 | 43 | |
| 20260503182646 | 8 | 196 | 4.8 | 6.4 | 0.00 | 0.00 | 0.00 | 45 | |
| 20260503182144 | 8 | 188 | 4.8 | 14.5 | 0.00 | 0.00 | 0.00 | 45 | |
| 20260503181641 | 8 | 263 | 8.0 | 17.7 | 0.00 | 0.00 | 0.00 | 49 | |
| 20260503181138 | 8 | 275 | 8.0 | 14.5 | 0.00 | 0.00 | 0.00 | 47 | |
| 20260503180635 | 9 | 251 | 16.1 | 27.4 | 0.00 | 0.00 | 0.00 | 45 | |
| 20260503180132 | 9 | 261 | 12.9 | 20.9 | 0.00 | 0.00 | 0.00 | 47 | |
| 20260503175629 | 8 | 233 | 14.5 | 22.5 | 0.00 | 0.00 | 0.00 | 47 | |
| 20260503175126 | 8 | 257 | 22.5 | 30.6 | 0.00 | 0.00 | 0.00 | 46 | |
| 20260503174623 | 7 | 286 | 14.5 | 25.7 | 0.00 | 0.00 | 0.00 | 49 | |
| 20260503174120 | 8 | 200 | 4.8 | 6.4 | 0.00 | 0.00 | 0.00 | 51 | |
| 20260503173615 | 8 | 241 | 11.3 | 14.5 | 0.00 | 0.00 | 0.00 | 49 | |
| 20260503173112 | 7 | 268 | 17.7 | 32.2 | 0.00 | 0.00 | 0.00 | 50 | |
| 20260503172609 | 7 | 271 | 12.9 | 17.7 | 0.00 | 0.00 | 0.00 | 51 | |
| 20260503172106 | 7 | 237 | 11.3 | 22.5 | 0.00 | 0.00 | 0.00 | 49 | |
| 20260503171602 | 8 | 252 | 6.4 | 17.7 | 0.00 | 0.00 | 0.00 | 48 | |
| 20260503171059 | 8 | 294 | 3.2 | 14.5 | 0.00 | 0.00 | 0.00 | 52 | |
| 20260503170550 | 7 | 268 | 9.7 | 17.7 | 0.00 | 0.00 | 0.00 | 50 | |
| 20260503150937 | 5 | 206 | 9.7 | 14.5 | 0.00 | 0.00 | 0.00 | 55 | |
| 20260503150433 | 5 | 237 | 11.3 | 22.5 | 0.00 | 0.00 | 0.00 | 58 | |
| 20260503131326 | 2 | 261 | 6.4 | 16.1 | 0.00 | 0.00 | 0.00 | 72 | |
| 20260503130824 | 2 | 325 | 4.8 | 14.5 | 0.00 | 0.00 | 0.00 | 74 | |
| 20260503130321 | 2 | 284 | 14.5 | 17.7 | 0.00 | 0.00 | 0.00 | 73 | |
| 20260503110714 | 0 | 205 | 0.0 | 6.4 | 0.00 | 0.00 | 0.00 | 90 | |
| 20260503110212 | 0 | 188 | 0.0 | 6.4 | 0.00 | 0.00 | 0.00 | 90 | |
| 20260503100138 | 0 | 193 | 3.2 | 9.7 | 0.00 | 0.00 | 0.00 | 90 |